Theta_e
295 295 294 294 293 293 292 292 292 291 291 290 290 290 290 290 289 288 288 287 287 287 286 286 287 287 287 286 286 286 285 285 285 285 285 285 285 284 284 284 283 283
295 294 294 294 293 293 292 292 292 291 291 290 290 290 289 289 289 288 288 287 287 286 286 286 286 286 286 286 286 286 285 285 285 285 285 285 285 285 284 284 284 283
295 294 294 294 293 293 292 292 291 291 291 291 290 290 289 289 289 288 288 287 287 286 286 286 286 286 286 286 286 285 285 285 285 285 284 285 285 285 284 284 283 283
294 294 294 294 293 293 292 291 291 291 291 290 290 290 289 289 289 288 288 287 286 286 286 286 286 286 286 285 285 285 285 285 284 284 284 284 284 284 284 284 283 282
294 294 294 293 293 292 292 291 291 291 290 290 290 289 289 289 288 288 288 287 286 286 285 285 285 285 285 285 285 285 284 284 284 284 284 284 284 284 283 283 282 282
294 293 293 293 292 292 291 291 291 290 290 290 289 289 289 289 288 288 287 287 286 286 285 285 285 285 285 285 284 284 284 283 283 283 283 283 283 283 283 282 282 281
293 293 293 292 292 291 291 291 291 290 290 289 289 289 289 288 288 288 287 287 286 286 285 285 285 285 284 284 283 283 283 283 283 283 283 283 283 283 282 282 281 280
293 293 292 292 291 291 291 291 290 290 289 289 289 288 288 288 288 288 287 287 286 285 285 285 285 285 284 283 283 283 283 282 282 283 283 283 283 282 282 281 280 279
293 292 292 291 291 291 291 290 290 289 289 289 288 288 288 288 288 287 287 286 286 285 285 285 284 284 283 283 283 283 283 282 282 282 283 283 283 282 281 280 279 279
292 292 291 291 291 290 290 290 289 289 289 288 288 288 287 287 287 287 287 286 286 285 285 284 283 283 283 283 283 283 283 282 282 282 283 283 283 282 281 280 279 278
292 291 291 290 290 290 290 289 289 289 288 288 287 287 287 287 286 286 286 286 285 285 284 284 283 282 282 282 282 282 282 282 282 283 283 283 282 281 280 279 278 277
291 291 291 290 290 290 290 289 288 288 288 287 287 287 286 286 286 286 285 285 285 285 284 283 283 282 282 282 282 281 281 281 282 282 282 282 281 280 279 278 277 277
291 291 291 290 290 290 289 288 288 287 287 287 287 286 286 285 285 285 285 285 285 284 284 283 282 282 281 281 281 281 281 281 282 282 281 281 280 279 278 277 277 276
291 291 291 290 289 289 288 288 287 287 287 287 286 286 285 285 285 285 285 284 284 284 283 282 282 281 281 281 281 280 280 281 281 281 281 280 279 278 277 277 276 276
291 291 290 289 289 288 288 287 287 286 286 286 285 285 285 285 285 285 284 283 283 282 282 281 281 281 281 281 281 280 281 281 281 281 280 279 278 277 276 276 276 276
291 290 289 289 288 288 287 287 286 286 285 285 284 284 284 284 284 284 283 283 282 281 281 281 281 281 281 281 281 281 281 281 281 280 280 279 278 276 276 276 276 275
290 290 289 288 287 287 286 286 285 284 284 284 283 283 283 283 283 283 282 282 282 281 281 280 280 281 281 280 280 281 281 281 281 280 279 278 277 276 276 275 275 275
290 289 288 287 287 286 285 285 284 283 283 283 283 283 282 282 282 282 282 281 281 281 280 280 280 281 280 280 280 280 281 281 280 279 278 277 276 276 276 275 275 274
289 288 287 287 286 285 284 284 283 283 283 282 282 282 282 281 281 281 281 280 280 280 280 280 280 280 279 279 279 280 280 280 279 279 278 277 276 276 275 275 275 275
288 288 287 286 285 284 283 283 282 282 282 282 281 281 280 280 280 280 280 280 279 279 279 279 280 280 279 278 279 279 279 279 278 278 277 277 276 276 275 275 275 275
288 287 286 285 284 283 283 282 282 282 281 281 281 280 280 280 280 279 279 279 279 279 278 278 279 279 278 279 279 279 278 278 277 277 276 276 276 275 275 275 275 275
287 286 285 284 283 283 282 281 281 281 281 280 280 280 280 279 279 279 278 278 278 278 277 277 278 278 278 279 280 280 279 278 277 277 276 276 276 275 275 275 275 274
287 286 284 284 283 282 282 281 281 281 280 280 279 279 279 279 278 278 278 277 277 277 276 277 277 278 279 280 280 280 280 279 277 277 276 276 275 275 275 275 274 274
286 285 284 283 282 282 282 281 281 280 280 279 279 279 278 278 278 277 277 277 277 276 276 277 277 278 280 280 280 280 280 278 277 276 276 275 275 275 274 274 273 273
285 285 284 284 283 282 282 281 281 280 279 279 278 278 278 277 277 276 276 276 276 276 276 276 277 278 279 280 280 280 279 278 277 276 275 275 274 274 274 273 273 274
285 285 284 283 283 282 281 281 280 279 279 278 278 277 277 276 276 276 275 275 275 275 275 275 276 277 279 279 279 279 279 277 276 275 275 274 274 273 273 273 274 274
Wind_Speed
46 45 44 43 43 42 42 42 43 43 44 45 45 45 45 46 46 45 43 41 38 35 32 30 27 26 25 23 22 20 17 15 13 12 11 9 8 8 8 9 9 10
47 45 44 43 43 43 42 43 44 44 44 44 44 43 43 44 45 45 44 42 39 37 34 31 29 28 27 25 23 21 19 17 15 14 12 11 10 10 10 10 11 11
47 47 46 46 45 44 43 42 42 43 43 43 43 43 43 44 44 45 45 43 41 38 35 33 31 30 28 27 25 22 20 18 16 16 14 12 11 11 11 12 12 11
48 49 49 48 46 44 42 41 41 43 42 42 43 42 42 43 44 44 45 43 42 39 36 34 33 31 30 28 25 23 21 19 18 17 16 14 13 12 12 12 11 11
48 49 48 47 46 43 41 42 43 43 42 43 42 42 42 42 43 44 44 43 42 40 38 36 34 33 31 29 27 24 23 21 20 19 16 14 13 12 12 12 11 11
45 47 47 46 44 43 43 44 44 43 43 42 42 42 42 42 43 43 44 44 42 41 40 38 36 35 33 30 28 26 24 22 21 19 16 14 14 13 13 12 12 11
45 46 46 44 43 43 44 44 43 43 43 42 42 43 43 43 44 44 44 44 43 42 41 40 39 37 34 31 29 27 25 22 21 19 17 16 15 15 14 13 13 12
45 44 43 43 43 43 44 44 43 42 42 42 42 43 44 44 45 44 44 44 43 42 41 41 40 38 35 33 31 28 26 24 22 21 19 18 17 16 15 14 13 13
43 41 41 43 43 44 44 44 42 42 42 42 42 43 43 44 45 44 44 44 43 42 41 41 39 37 35 33 31 29 27 26 23 21 20 19 18 18 16 15 15 14
42 41 41 42 44 45 44 43 42 42 42 42 42 42 43 44 44 44 44 44 44 42 41 40 39 37 35 33 30 29 27 25 23 21 20 19 19 18 17 16 15 15
42 41 41 42 44 44 43 43 42 42 42 42 42 42 43 43 43 44 45 45 44 43 42 40 39 37 35 33 30 28 26 24 23 22 21 20 19 18 17 16 15 15
41 41 42 44 45 44 44 43 42 42 42 42 43 43 43 43 44 45 45 45 44 43 42 40 39 37 35 33 31 29 26 24 22 21 21 20 19 17 16 16 15 14
41 44 46 46 45 43 42 41 41 42 42 43 43 43 43 44 44 45 45 45 44 43 42 40 39 37 35 33 31 29 27 25 23 22 21 20 18 17 16 16 15 14
43 45 45 43 42 40 39 39 40 41 42 42 43 43 44 45 46 45 44 43 43 42 41 40 38 37 36 34 31 29 27 26 24 23 22 21 19 18 17 16 16 14
43 41 40 39 39 39 39 40 41 41 41 42 43 44 44 45 45 45 44 43 41 41 40 39 39 38 37 35 33 30 29 27 25 25 23 22 21 19 18 16 15 14
39 37 37 38 39 40 41 41 41 41 41 42 43 43 44 44 44 44 44 44 42 41 40 40 40 40 38 36 33 31 30 29 28 26 24 23 21 20 18 16 14 12
35 36 37 38 39 40 40 41 41 41 41 42 42 42 43 44 44 44 44 44 44 43 43 42 42 41 39 36 33 31 31 30 30 28 26 24 22 21 18 15 13 11
36 36 37 37 38 39 40 40 40 40 41 41 42 43 43 44 45 45 44 44 44 44 44 44 44 42 39 36 34 32 32 31 30 28 27 25 23 20 18 15 13 12
35 35 36 37 38 39 39 39 40 41 42 43 43 44 44 44 44 44 44 44 44 44 44 44 44 42 38 36 35 34 33 31 30 29 27 26 23 20 18 16 15 13
34 35 36 36 36 37 38 39 41 42 42 42 42 42 43 43 43 43 43 43 44 44 43 43 43 41 38 36 35 33 33 31 30 28 26 24 22 20 19 18 17 15
35 36 35 35 36 37 38 39 40 40 40 40 41 42 43 43 43 43 43 42 42 42 41 41 41 40 37 35 33 31 30 30 28 26 25 23 21 20 20 19 18 17
36 36 35 35 36 37 38 39 39 39 40 39 39 39 40 40 40 41 41 41 40 40 39 38 39 38 35 33 31 29 28 27 26 25 24 23 22 20 20 20 18 16
36 36 35 36 37 37 38 39 39 39 39 39 38 37 37 37 38 38 38 39 39 39 38 37 37 35 31 30 30 28 27 27 26 25 23 23 22 20 19 19 15 12
35 36 36 36 38 39 39 39 38 37 37 38 39 37 36 37 36 35 35 37 39 40 38 37 37 35 30 28 28 28 28 29 27 25 23 21 21 19 16 14 11 9
32 35 36 36 38 38 37 36 34 34 34 35 35 35 34 34 35 34 34 35 37 39 38 37 37 35 30 27 28 27 27 29 27 25 23 20 19 17 14 11 9 9
27 30 32 33 33 32 31 31 31 31 32 33 33 32 32 32 33 34 34 34 36 36 36 36 37 36 31 27 27 26 26 28 28 26 24 22 19 17 14 12 11 10
Wind_Direction
213 213 214 215 216 216 214 213 211 210 210 209 208 209 208 208 207 206 206 207 207 206 205 204 202 201 201 201 201 200 200 200 200 202 204 204 205 209 212 219 228 234
214 214 215 216 217 217 216 216 214 213 213 212 212 211 210 209 208 207 206 206 205 205 204 203 202 201 201 201 200 199 199 199 200 203 204 204 205 207 211 216 222 229
214 214 215 217 217 217 217 217 216 215 215 214 213 213 211 209 208 206 206 206 204 203 202 202 201 201 201 201 199 200 200 201 202 202 203 204 205 208 211 214 219 226
215 215 216 217 218 218 217 216 217 216 216 215 214 213 211 210 208 206 205 205 204 202 201 200 201 200 200 199 199 200 201 201 202 202 202 202 203 205 207 212 219 226
216 217 217 217 218 217 217 217 217 216 215 215 214 212 211 210 208 206 204 203 203 201 199 199 200 200 199 199 200 200 200 199 199 200 201 198 197 202 206 211 217 226
218 218 218 217 217 216 216 218 218 216 215 214 213 211 211 210 209 207 205 203 202 201 199 198 199 199 199 200 200 200 199 199 198 198 198 195 195 199 204 211 217 224
219 219 217 217 216 216 217 218 218 217 215 214 212 211 210 208 209 207 205 203 202 201 200 199 199 198 199 200 198 198 198 198 197 197 195 193 194 198 203 210 217 223
219 218 216 215 215 216 217 217 217 216 214 212 211 210 209 208 207 206 204 203 202 202 202 201 200 199 199 199 198 196 196 196 197 196 194 193 193 197 203 209 216 223
218 217 216 215 214 215 217 216 215 215 213 212 210 209 208 207 207 205 203 202 202 202 202 201 201 200 199 199 198 198 196 196 197 196 194 194 195 198 203 208 215 222
217 217 216 214 214 215 215 214 214 213 212 211 209 208 206 205 205 204 203 201 201 202 202 201 201 200 200 199 199 199 198 196 195 194 195 196 198 201 204 209 215 221
216 215 214 214 214 215 214 213 212 211 210 209 207 206 205 203 201 201 201 200 200 201 202 202 203 202 200 200 199 199 199 198 195 194 195 197 199 203 206 211 217 223
214 213 214 215 214 214 213 212 210 208 207 206 205 204 201 200 200 199 200 200 201 202 202 203 203 202 201 200 198 197 196 196 195 194 195 197 200 204 208 214 219 223
214 214 215 215 214 213 212 210 208 206 205 203 203 202 199 198 198 198 199 200 201 202 203 204 203 202 202 200 198 197 195 194 193 193 194 197 202 206 209 216 221 222
216 216 215 213 212 211 209 207 205 204 203 202 201 200 199 199 198 197 198 199 201 202 202 203 202 201 201 199 198 197 196 195 193 192 195 198 201 207 211 215 220 223
218 216 213 211 209 207 206 205 204 202 201 200 200 199 198 199 198 198 197 197 199 201 201 201 201 201 201 200 198 197 195 194 194 194 197 199 200 204 209 213 218 223
217 213 210 208 206 204 204 202 201 200 198 198 197 197 197 197 197 197 197 197 197 198 199 200 201 203 203 202 201 199 195 193 193 195 196 198 200 201 204 210 216 221
212 209 207 205 204 202 202 200 198 197 196 195 194 194 195 196 195 195 196 197 197 198 198 199 201 204 203 202 200 199 196 194 193 194 195 197 199 199 201 207 209 213
209 206 204 203 201 201 199 197 195 194 193 193 193 194 194 194 195 195 196 197 197 198 199 199 202 204 201 199 198 196 196 195 193 193 194 195 197 198 199 200 199 201
205 203 201 201 199 198 196 193 192 192 192 193 193 193 193 193 194 195 195 196 197 197 199 200 202 202 198 196 196 195 195 195 194 194 194 194 196 198 197 195 194 193
203 201 200 199 197 195 192 191 192 193 193 193 192 191 192 192 193 194 195 196 198 198 199 200 202 200 195 194 194 194 194 194 193 193 194 196 197 196 196 195 193 195
201 200 198 196 193 192 191 192 193 193 193 192 192 192 192 193 193 194 195 196 197 198 198 200 201 197 193 192 191 190 191 192 192 192 193 195 196 195 197 196 194 201
199 197 195 193 191 190 191 192 193 193 192 192 191 192 193 194 194 195 195 195 196 196 196 199 200 195 191 192 189 184 185 188 190 192 192 193 195 195 197 200 204 212
199 194 192 191 190 190 192 193 193 193 192 191 189 190 191 193 194 195 195 194 194 194 196 197 197 192 189 191 188 183 183 187 189 191 191 194 197 198 203 208 214 218
198 194 193 191 191 193 194 193 192 192 191 190 189 190 191 192 193 193 193 194 195 195 196 197 195 189 187 189 187 184 185 187 189 189 190 195 198 200 210 217 215 217
198 196 195 194 194 196 194 192 191 190 189 190 190 190 191 191 191 191 191 194 196 196 197 197 193 187 185 187 185 183 188 189 188 187 188 193 197 199 209 215 209 218
202 200 200 198 197 196 192 189 189 187 187 187 188 189 189 189 190 190 191 193 195 196 196 196 193 186 183 186 184 183 188 190 188 189 189 189 192 194 199 206 214 226